Location: Bastelaar
(51.0950°N, 3.8602°E)
Time: 17:09:25
(UTC+00:00)

Cosmos 2016 Rocket - Pass Details

Date: 18 November 2025
Orbit: 946 x 999 km, 83.0° (Epoch: 10 December)

Event Time Altitude Azimuth Distance (km) Brightness Sun altitude
Rises 16:23:38 0° 182° (S) 3,679 7.4 -5.1°
Reaches altitude 10° 16:26:07 10° 180° (S) 2,741 6.7 -5.5°
Maximum altitude 16:32:24 77° 97° (E) 1,027 4.1 -6.4°
Drops below altitude 10° 16:38:48 10° 12° (NNE) 2,780 6.1 -7.3°
Sets 16:41:20 0° 11° (NNE) 3,735 6.7 -7.7°
